DELTA 1 DEB, 10720

Orbit data source: Space-Track

DELTA 1 DEB, 10720 is space debris in SSO originally from a launch on Thu, 29 Jul 1976 UTC launched from the Air Force Western Test Range (AFWTR). Debris objects in space refer to the collection of defunct objects orbiting the Earth. Examples of debris include non-operational satellites, rocket bodies, and fragments generated from explosions, collisions, or faulty payload assembly.

Loading next visibility...
Identifier
10720, 1976-077AR
Orbit
SSO
Country
Flag of USUS
Related business
Manufacturer
Unknown
Mission
Spacecraft
Bus & Motor
Unknown
Mass
Unknown
Launch date (UTC)
1976-07-29 (50 years ago)
Launch vehicle
Unknown
Launch site
Air Force Western Test Range (AFWTR)
Object type
Payload
Rocket body
Debris
Shape & HBR
Unknown shape, 0.2 m
Radar Cross Section
Small (<0.1 m²)

Expand to show TLE details & history
Last TLE update: 10 hours ago

TLE from 10 hours ago
0 DELTA 1 DEB
1 10720U 76077AR  26118.83202630  .00000414  00000-0  43537-2 0  9992
2 10720 102.1203 228.3546 0358335 270.1858 247.5987 12.05675738189968
Epoch: 2026-04-28T19:58Z
TLE epoch observation values (Epoch: 2026-04-28T19:58:07.072Z)
Latitude
25.35406°
Longitude
-102.16368°
Altitude
1,776.615 km
Speed
6.943 km/s
True Right ascension
03h 36m 40s
True Declination
25° 14' 16"
Sunlit
Object was in daylight at epoch
Visualization orbit readout
Latitude
Unknown
Longitude
Unknown
Altitude
Unknown
Speed
Unknown
Apparent Right ascension
Unknown
Apparent Declination
Unknown
Sunlit
N/A
Visualization observer readout
Local Sidereal Time
13:55:22
Azimuth
Unknown
Elevation
Unknown
Doppler factor
Unknown
Orbital elements
Apogee altitude
1,940.961 km
Perigee altitude
1,365.381 km
Semi-major axis
8,031.308 km
Eccentricity
0.03583
Inclination
102.1203°
RAAN
228.3546°
Arg. of periapsis
270.1858°
True anomaly
243.86874°
Mean anomaly
247.5987°
Eccentric anomaly
245.72709°
Mean motion
3.01553 °/min
Orbital period
119.38 mins
BSTAR
0.0043537
Loading maneuver chart data...
Computing Atmospheric mass density...
Loading historical data...
Loading historical data...
Loading historical data...
Loading historical data...
Loading historical data...
Loading historical data...
Loading historical data...

Documentation

Showing up to 5 results
|